sat.trackr.live / text

‹ back to catalog

TRANSPORTER-16 OBJECT Z

NORAD 68439 · 2026-067Z

PAYLOAD ACTIVE UNKNOWN

§ Identity

Operator
Country
TBD
Launch date
2026-03-30
Launch site
AFWTR
Launch vehicle
Mass (kg)
RCS (m²)

External: N2YO · Heavens-Above · Gunter

§ Orbital elements

Epoch: 2026-09-19T08:16:33.102912Z

Period
94.62 min
Inclination
97.4599°
Eccentricity
0.0004903
Mean motion
15.21852797 rev/d
Perigee alt
496.9 km
Apogee alt
503.6 km
Semi-major
6,878.4 km
B*
4.5067e-4
RAAN
219.8287°
Arg perigee
90.8087°
Mean anomaly
269.3711°
Rev number
2,625

§ Raw data

TRANSPORTER-16 OBJECT Z1 68439U 26067Z   26262.34482758  .00010184  00000+0  45067-3 0  99982 68439  97.4599 219.8287 0004903  90.8087 269.3711 15.21852797 26251

JSON: /api/v1/satellites/68439 · /tle

For live sub-satellite position, see the globe view (requires WebGL).

§ Visibility from observer

Set your observer location to see the next 7 days of passes ≥ 10°. The values pass through the URL so the page stays shareable.

No JS? Fill the form by hand. The geolocation button needs JavaScript.